User: anonymous   Login
Location: Unspecified
(0.0000°N, 0.0000°E)
Time: 10:36:05
(UTC+00:00)
Language:

COSMOS 2468 - Orbit

View from above orbital plane
View from above orbital plane
View from above satellite
View from above satellite

Ground track
Ground track

The orbit data is extracted from the following two-line orbital elements,

1 37154U 10043C   14302.73583885  .00000054  00000-0  31739-3 0  3040
2 37154 082.4664 201.6636 0012700 231.6277 128.3672 12.42890256187862
Epoch (UTC): 29 October 2014 17:39:36
Eccentricity: 0.0012700
inclination: 82.4664°
perigee height: 1484 km
apogee height: 1504 km
right ascension of ascending node: 201.6636°
argument of perigee: 231.6277°
revolutions per day: 12.42890256
mean anomaly at epoch: 128.3672°
orbit number at epoch: 18786

The dashed part of the orbit path shows where the satellite is in the earth's shadow,  

DLR